Total_Precipitation_Accumulation
1.70 1.47 1.16 0.94 0.38 0.35 0.26 0.28 0.18 0.14 0.68 0.95 1.07 1.56 1.26 0.80 0.68 0.63 0.67 0.61 0.55 0.50 0.44 0.47 0.54 0.53 0.73 0.47 0.74 0.57 0.57 0.49 0.55 0.48 0.54 0.53 0.43 0.47 0.50 0.49 0.54 0.83 0.63 0.70 0.55 0.59 0.71 0.61 0.42 0.64 0.55 0.92 0.71 0.72 0.54 0.39 0.44 0.51 0.57 0.59 0.54 0.66 0.67 0.81 0.78 0.67 0.45 0.37 0.87 0.52 0.35 0.26 0.33 0.28 0.16 0.15 0.14 0.18 0.26 0.20 0.25 0.39 0.31 0.57 0.15
0.83 0.96 0.91 0.90 0.23 0.42 0.56 0.41 0.57 0.27 0.48 1.12 1.70 0.85 0.30 0.37 0.38 0.44 0.43 0.44 0.36 0.43 0.42 0.46 0.39 0.40 0.36 0.45 0.22 0.30 0.34 0.45 0.33 0.57 0.35 0.50 0.62 0.27 0.53 0.28 0.68 0.79 0.52 0.48 0.56 0.83 0.49 0.54 0.67 0.68 0.59 0.49 0.53 0.70 0.57 0.51 0.44 0.42 0.52 0.61 0.56 0.46 0.42 0.54 0.56 0.61 0.52 0.33 0.43 0.41 0.39 0.33 0.24 0.25 0.23 0.18 0.15 0.20 0.21 0.29 0.35 0.48 0.62 0.35 0.62
0.35 0.44 0.48 0.37 0.35 0.50 0.51 0.44 0.32 0.19 0.57 0.56 0.52 0.47 0.53 0.60 0.52 0.49 0.41 0.39 0.34 0.37 0.44 0.38 0.33 0.27 0.34 0.46 0.42 0.35 0.76 0.36 0.46 0.29 0.22 0.36 0.31 0.29 0.30 0.42 0.74 0.87 0.65 0.84 0.83 0.50 0.69 0.56 0.46 0.53 0.57 0.52 0.71 0.51 0.50 0.57 0.68 0.78 0.62 0.50 0.57 0.52 0.82 0.63 0.61 0.55 0.37 0.39 0.54 0.54 0.40 0.38 0.33 0.28 0.22 0.19 0.27 0.26 0.24 0.26 0.21 0.15 0.16 0.28 0.33
0.73 0.81 0.53 0.47 0.72 0.97 0.66 0.53 0.50 0.17 0.55 0.69 0.98 0.43 0.32 0.53 0.57 0.55 0.41 0.46 0.26 0.31 0.40 0.29 0.36 0.36 0.37 0.28 0.33 0.44 0.36 0.32 0.22 0.43 0.51 0.46 0.35 0.37 0.29 0.44 0.74 0.79 0.68 0.51 0.69 0.68 0.53 0.67 0.41 0.38 0.45 0.54 0.67 0.55 0.57 0.48 0.46 0.66 0.44 0.45 0.42 0.39 0.61 0.40 0.45 0.46 0.48 0.48 0.66 0.49 0.42 0.42 0.37 0.34 0.22 0.27 0.20 0.35 0.26 0.29 0.24 0.26 0.23 0.14 0.25
0.32 0.33 1.31 1.53 1.01 0.67 0.67 0.80 0.63 0.60 0.85 1.30 0.78 0.80 0.49 0.50 0.74 0.73 0.47 0.66 0.56 0.36 0.23 0.35 0.43 0.28 0.30 0.22 0.31 0.46 0.43 0.42 0.41 0.32 0.41 0.55 0.63 0.48 0.25 0.25 0.50 0.54 0.56 0.67 1.05 0.83 0.63 0.52 0.61 0.63 0.86 0.56 0.47 0.43 0.37 0.44 0.53 0.37 0.50 0.43 0.44 0.45 0.53 0.44 0.48 0.54 0.66 0.55 0.42 0.36 0.60 0.51 0.95 0.75 0.44 0.52 1.08 0.55 1.42 0.80 0.29 0.39 0.34 0.22 0.34
1.59 2.05 2.80 2.28 1.48 2.42 1.54 1.01 1.33 1.35 1.57 1.11 0.89 0.90 0.77 0.69 0.92 0.91 0.53 0.77 0.47 0.31 0.43 0.29 0.30 0.38 0.42 0.32 0.48 0.35 0.39 0.41 0.57 0.29 0.32 0.66 0.76 0.36 0.50 0.47 0.37 0.58 0.63 0.63 0.55 0.65 0.62 0.63 0.64 0.74 0.70 0.68 0.43 0.42 0.56 0.64 0.51 0.42 0.38 0.39 0.54 0.51 0.49 0.50 0.75 0.61 0.54 0.43 0.43 0.92 0.68 0.91 0.59 0.46 0.79 0.48 0.43 0.33 0.55 0.74 0.96 1.57 1.82 1.10 0.20
2.64 2.63 2.58 2.22 2.51 1.44 1.56 2.34 1.72 2.32 1.90 1.63 1.79 1.15 0.99 1.13 1.25 1.10 0.89 0.74 0.69 0.83 0.72 0.49 0.45 0.40 0.30 0.36 0.51 0.85 0.34 0.34 0.26 0.54 0.48 0.35 0.48 0.32 0.42 0.50 0.51 0.40 0.38 0.72 0.52 0.52 0.68 0.71 0.61 0.67 0.87 1.06 0.60 0.48 0.49 0.55 0.66 0.44 0.47 0.47 0.51 0.53 0.60 0.64 0.63 0.97 0.72 0.78 1.02 0.79 0.82 0.55 0.64 0.57 0.43 0.62 1.37 1.49 1.52 0.50 0.50 0.51 0.49 0.36 0.84
2.91 1.39 1.49 2.01 1.63 2.04 1.87 1.95 1.97 1.87 1.67 1.84 2.03 2.04 1.68 1.43 1.25 1.11 1.07 0.75 0.77 0.81 0.73 0.56 0.50 0.31 0.34 0.91 0.92 0.72 0.57 0.44 0.32 0.26 0.29 0.48 0.45 0.62 0.34 0.34 0.36 0.41 0.61 0.43 0.60 0.72 0.66 0.47 0.65 1.48 0.99 0.72 0.73 0.72 0.86 0.81 0.61 0.42 0.38 0.52 0.70 0.82 0.64 0.69 0.77 0.88 0.93 0.93 0.99 0.74 0.54 0.60 0.50 0.78 1.51 1.33 0.76 1.11 0.88 0.63 0.45 0.38 0.43 0.49 0.39
1.36 1.83 1.65 1.53 1.45 1.80 1.89 1.94 1.61 1.48 1.88 2.28 2.33 2.25 1.95 1.53 1.19 1.05 0.72 0.70 0.98 0.54 0.52 0.62 0.33 0.29 0.28 0.54 0.65 0.58 0.45 0.46 0.53 0.63 0.60 0.59 0.32 0.27 0.59 0.49 0.26 0.37 0.44 0.39 0.28 0.34 0.40 0.54 0.49 0.79 0.67 0.69 0.78 0.82 1.16 1.17 0.90 0.55 0.31 0.49 0.76 0.59 0.50 0.81 1.09 0.95 0.65 0.62 1.15 1.07 0.68 0.54 0.50 0.47 0.43 0.48 0.52 0.51 0.43 0.41 0.44 0.49 0.76 0.70 0.62
1.35 1.75 1.13 0.79 1.00 1.59 1.29 1.32 1.64 1.40 2.60 2.00 1.38 1.56 1.44 1.29 0.90 0.91 1.02 0.80 0.57 0.45 0.38 0.39 0.42 0.44 0.34 0.33 0.92 0.73 0.84 0.43 0.38 0.42 0.38 0.31 0.35 0.32 0.69 0.78 0.43 0.36 0.37 0.43 0.41 0.37 0.37 0.37 0.42 0.38 0.17 0.38 0.51 0.39 0.40 0.42 0.41 0.61 0.76 0.89 0.68 0.58 0.64 0.63 0.71 0.86 0.91 0.76 0.77 0.70 0.68 0.55 0.52 0.47 0.43 0.41 0.38 0.30 0.56 0.56 0.92 0.61 0.48 1.36 3.40
1.56 0.97 1.36 0.94 1.26 1.46 1.82 2.61 1.73 2.80 2.35 1.59 1.41 1.80 1.07 1.13 0.92 0.46 0.52 0.38 0.44 0.50 0.45 0.46 0.32 1.12 0.58 0.49 0.43 0.41 0.24 0.17 0.22 0.23 0.20 0.18 0.19 0.33 0.78 0.79 0.20 0.30 0.31 0.66 0.35 0.36 0.26 0.63 0.94 0.53 0.45 0.51 1.13 0.22 0.39 0.31 0.24 0.26 0.32 0.41 0.65 0.67 0.64 0.57 0.57 1.57 1.04 1.00 2.47 3.70 1.80 0.53 0.33 0.38 0.34 0.39 0.39 0.39 0.31 0.34 0.64 0.38 0.38 0.67 0.73
1.30 1.59 1.26 1.03 1.37 1.81 1.71 2.33 1.50 1.77 1.87 1.73 1.23 1.64 1.45 1.13 1.00 0.90 0.59 0.86 0.97 0.68 0.45 0.26 0.52 0.71 0.68 0.47 0.48 0.50 0.48 0.63 0.22 0.11 0.06 0.04 0.06 0.48 0.67 0.46 0.21 0.36 0.37 0.46 0.65 0.42 0.78 1.07 1.11 0.52 0.44 0.48 0.38 1.14 1.06 0.68 0.39 0.23 0.39 0.23 0.27 0.36 0.52 1.29 0.87 0.88 0.87 1.38 1.17 1.05 1.75 0.89 0.58 0.46 0.39 0.38 0.42 0.54 0.45 0.46 0.38 0.61 0.43 0.40 0.44
1.64 0.99 1.06 1.08 1.48 1.20 1.76 1.64 1.31 1.39 1.29 1.64 1.35 1.20 1.21 0.81 1.27 1.77 1.30 0.74 0.90 0.59 0.80 0.35 0.40 0.78 0.50 0.78 0.66 0.99 1.15 0.71 0.41 0.28 0.22 0.21 0.22 0.35 0.51 0.60 0.42 0.50 0.57 0.98 0.58 0.75 0.56 1.06 0.69 0.74 0.57 0.30 0.34 0.39 0.28 0.43 0.48 0.32 0.47 0.30 0.25 0.37 0.44 0.44 0.73 0.72 0.87 1.15 1.00 1.67 0.64 0.49 0.48 0.64 0.38 0.49 0.39 0.50 0.41 0.47 0.46 0.42 0.47 0.49 0.26
1.05 1.06 0.81 0.96 1.25 1.08 1.14 1.07 1.24 1.69 1.75 1.18 1.28 1.01 1.28 1.15 1.18 1.42 1.40 1.30 0.90 0.76 0.61 0.53 0.62 0.66 0.48 0.28 0.40 0.72 1.25 0.57 0.36 0.19 0.12 0.10 0.11 0.23 0.60 0.61 0.59 0.54 0.50 0.73 0.90 1.04 1.62 0.71 0.59 0.51 0.56 0.44 0.62 0.54 0.68 0.53 0.54 0.72 0.49 0.51 0.59 0.40 0.68 0.52 0.92 0.42 0.67 0.95 1.12 0.77 0.65 0.63 0.61 0.67 0.73 0.68 0.93 0.84 0.70 0.65 0.49 0.44 0.41 0.40 0.32
0.68 0.81 0.95 0.79 1.17 1.20 1.32 0.99 1.11 1.10 1.08 1.18 1.24 1.67 1.35 1.34 1.15 1.22 1.55 1.28 1.02 0.76 0.60 0.51 0.47 0.57 0.53 0.49 0.60 0.71 0.47 0.36 0.16 0.47 0.35 0.31 0.38 0.40 0.71 0.58 0.67 0.50 0.72 1.21 0.61 0.37 1.11 0.64 0.96 0.56 0.51 0.44 0.58 0.44 0.46 0.39 0.41 0.48 0.76 0.98 1.13 0.81 0.78 0.73 0.59 0.64 0.45 0.59 0.83 0.90 1.40 1.19 1.08 0.85 1.59 0.98 1.25 0.77 0.80 0.88 0.62 0.61 0.68 0.55 0.77
0.69 0.72 0.61 0.90 0.66 1.00 0.96 0.97 0.98 1.11 1.16 1.13 1.40 1.24 1.19 0.98 0.88 0.69 0.60 0.54 0.50 0.51 0.41 0.51 0.42 0.35 0.37 0.28 0.27 1.17 1.20 0.52 0.36 0.24 0.18 0.34 0.48 0.42 0.44 0.57 0.65 0.53 1.27 0.84 0.78 0.59 1.31 0.92 0.65 0.49 0.43 0.40 0.35 0.33 0.47 0.49 0.68 0.46 0.44 0.75 0.86 0.67 0.50 0.36 0.32 0.40 0.81 0.87 0.76 1.07 0.65 1.31 0.68 0.83 0.80 0.72 1.03 1.04 1.19 1.49 1.99 1.74 1.54 1.09 0.87
1.41 0.87 0.85 0.62 0.62 0.86 1.20 0.83 0.92 0.93 0.99 1.13 1.26 1.26 1.19 1.13 1.03 0.98 0.97 0.66 0.50 0.83 0.34 0.34 0.18 0.53 0.27 0.26 0.24 0.32 0.24 0.19 0.09 0.23 0.12 0.12 0.27 0.26 0.20 0.32 0.41 0.72 0.66 0.46 1.12 1.11 0.57 0.59 0.89 0.69 0.83 0.87 0.33 0.35 0.46 0.42 1.04 1.00 0.76 1.02 0.53 0.54 0.38 0.34 0.42 0.35 0.40 0.43 0.37 0.48 0.44 0.41 0.47 0.71 0.66 0.75 1.42 0.95 1.46 1.46 1.47 1.30 2.11 1.60 1.07
1.13 1.16 1.36 1.00 0.89 0.74 0.96 0.92 0.77 1.00 1.09 0.88 1.27 1.17 1.25 1.33 1.24 1.38 1.33 1.02 0.81 0.70 0.92 0.38 0.39 0.38 0.63 0.47 0.26 0.45 0.71 0.59 0.13 0.14 0.14 0.17 0.20 0.21 0.56 0.37 0.35 0.28 0.57 0.51 0.56 0.50 0.65 0.44 0.32 1.04 0.63 0.50 0.47 0.30 0.34 0.49 0.81 0.79 0.66 0.37 0.51 0.52 0.43 0.42 1.11 0.71 0.53 0.59 0.54 0.88 0.70 0.37 0.37 0.43 0.53 0.73 1.10 1.22 1.80 1.91 1.46 1.29 1.24 1.15 1.37
1.34 1.34 1.00 1.13 1.26 1.19 1.10 1.24 1.04 0.83 1.00 1.03 0.95 1.23 1.21 1.14 1.46 1.33 1.34 1.19 1.01 0.93 0.89 0.68 0.69 0.46 0.55 0.59 0.41 0.31 0.33 0.28 0.17 0.25 0.31 0.48 0.56 0.66 0.80 0.70 0.31 0.64 0.69 0.54 0.62 0.38 0.48 0.42 0.28 0.29 0.57 0.31 0.46 0.36 0.38 0.75 0.96 0.93 0.80 0.66 0.90 0.55 0.41 0.51 0.73 0.95 1.21 1.27 1.32 0.98 1.70 1.14 1.80 1.34 1.53 0.56 0.70 0.83 1.00 1.18 1.50 1.30 1.36 1.22 1.08
0.52 0.77 1.09 0.97 1.08 1.10 1.39 1.33 1.36 1.24 1.03 1.07 1.09 0.96 1.19 1.32 1.29 1.38 1.48 1.40 1.41 1.13 0.85 0.87 0.79 0.63 0.49 0.55 0.59 0.56 0.46 0.31 0.23 0.25 0.31 0.36 0.38 0.51 0.35 0.40 0.99 0.51 0.85 0.37 0.39 0.53 0.32 0.25 0.55 0.33 0.30 0.27 0.76 0.81 0.54 0.41 0.50 0.57 0.71 0.65 1.04 0.74 0.49 0.79 1.10 0.89 0.89 0.90 0.70 0.44 0.62 0.39 0.43 0.47 0.47 0.53 1.18 0.97 0.70 0.87 0.99 1.30 1.24 1.20 1.14
0.18 0.23 0.31 0.72 0.99 1.08 1.06 1.20 1.45 1.58 1.40 1.28 1.24 1.05 1.15 1.23 1.22 1.22 1.48 1.34 1.42 1.31 1.24 1.12 0.96 0.80 0.75 0.65 0.68 0.69 0.66 0.49 0.47 0.36 0.27 0.44 0.46 0.37 0.47 0.54 0.56 0.51 0.45 0.33 0.32 0.48 0.46 0.42 0.47 0.38 0.24 0.34 0.50 0.39 0.35 0.57 1.22 1.23 0.52 0.57 0.65 1.11 1.52 1.30 0.97 0.63 0.80 0.86 0.70 0.73 0.70 0.68 0.66 0.59 0.79 0.66 0.80 0.58 0.86 1.17 0.88 1.42 1.78 1.65 1.43
0.06 0.09 0.10 0.15 0.24 0.70 0.90 1.06 1.11 1.27 1.29 1.22 1.25 1.03 1.04 1.28 1.35 1.24 1.28 1.28 1.39 1.46 1.40 1.41 1.31 1.12 1.12 1.08 0.97 1.02 0.86 0.77 0.74 0.68 0.56 0.41 0.37 0.65 1.04 0.82 0.70 0.73 0.67 0.60 0.53 0.45 0.49 0.51 0.87 0.76 0.63 0.64 0.54 0.75 0.69 0.54 0.75 1.68 0.56 0.73 1.26 0.69 1.07 0.78 0.72 0.53 0.50 0.75 0.72 0.74 0.85 0.90 0.80 0.81 1.05 0.96 1.09 0.99 0.83 0.86 0.95 1.97 1.53 1.44 2.10
0.04 0.04 0.06 0.07 0.11 0.14 0.24 0.54 0.94 1.18 1.35 1.21 1.17 1.23 1.09 1.10 1.14 1.20 1.29 1.31 1.20 1.30 1.35 1.37 1.44 1.38 1.29 1.22 1.28 1.18 1.26 1.24 1.16 1.14 0.96 0.87 0.69 0.67 0.67 0.74 0.78 0.82 0.85 0.91 0.74 0.78 0.79 0.86 0.69 0.71 1.17 1.39 1.05 0.99 1.08 0.93 1.15 1.23 1.17 1.08 0.82 0.90 1.05 0.79 0.73 0.66 0.60 0.65 0.68 0.81 0.88 1.00 1.07 1.21 1.34 1.61 1.59 1.45 1.67 1.50 1.46 1.63 1.34 1.07 0.99
0.14 0.09 0.07 0.06 0.04 0.06 0.07 0.12 0.21 0.35 0.68 1.14 1.33 1.21 1.09 0.97 1.00 0.94 0.92 1.08 1.19 1.17 1.20 1.25 1.24 1.35 1.40 1.33 1.33 1.31 1.31 1.27 1.19 1.19 1.23 1.18 1.10 1.20 1.24 1.21 1.09 1.09 1.22 1.15 0.90 0.93 1.00 1.14 0.77 0.72 0.89 0.99 0.93 0.98 1.01 0.79 0.86 0.90 0.91 0.97 1.40 1.29 1.07 1.24 1.23 1.01 1.15 0.98 0.93 0.99 1.03 1.14 1.35 1.53 1.71 1.53 1.39 1.41 1.35 1.82 1.47 1.32 1.34 1.58 1.20
0.12 0.19 0.17 0.12 0.09 0.05 0.04 0.13 0.11 0.23 0.17 0.23 0.48 0.90 1.13 1.16 0.98 0.96 0.85 0.88 0.91 0.95 0.94 0.98 0.99 1.23 1.27 1.32 1.24 1.25 1.22 1.38 1.40 1.49 1.18 1.29 1.36 1.34 1.39 1.32 1.55 1.27 1.20 0.93 0.84 1.07 0.88 0.90 0.74 0.93 0.90 0.89 1.02 1.11 0.95 1.00 1.26 1.23 1.17 1.17 1.03 1.30 1.11 1.14 1.20 1.22 1.09 1.11 1.27 1.37 1.38 1.63 1.57 1.71 1.98 1.83 1.72 1.55 1.32 1.29 1.42 1.41 1.48 1.38 1.47
0.10 0.12 0.13 0.13 0.14 0.14 0.10 0.07 0.11 0.15 0.11 0.30 0.18 0.23 0.43 0.70 1.03 1.29 1.02 0.97 1.00 1.00 0.98 0.91 0.90 0.93 1.03 1.16 1.23 1.17 1.20 0.96 1.00 1.16 1.43 1.48 1.52 1.36 1.32 1.26 1.28 1.11 1.35 1.52 1.26 1.11 1.30 1.24 0.96 0.80 0.95 1.10 1.16 1.24 1.47 1.37 1.27 1.35 1.16 1.20 1.38 1.31 1.34 1.46 1.37 1.38 1.58 1.66 1.79 1.90 1.98 1.86 2.11 2.14 1.99 1.88 1.95 1.82 1.61 1.57 1.52 1.76 1.80 2.23 2.12
0.10 0.12 0.11 0.09 0.08 0.09 0.13 0.13 0.10 0.14 0.26 0.18 0.21 0.16 0.21 0.36 0.40 0.54 1.03 0.95 1.34 0.83 1.08 1.10 1.06 1.21 1.10 1.01 1.30 1.59 1.49 1.07 0.91 0.96 0.93 0.95 1.24 1.66 1.71 1.69 1.58 1.25 1.13 1.19 1.19 1.02 0.94 0.95 0.99 1.07 0.99 1.05 1.17 1.26 1.45 1.37 1.48 1.57 1.68 1.38 1.49 1.54 1.37 1.44 1.49 1.56 1.81 1.81 1.84 1.84 2.08 1.87 1.61 1.76 2.04 1.85 1.82 1.92 1.91 1.99 1.84 1.86 1.69 1.74 1.62
0.03 0.05 0.05 0.05 0.06 0.07 0.09 0.10 0.13 0.13 0.11 0.12 0.17 0.17 0.31 0.24 0.30 0.26 0.32 0.43 0.58 1.03 0.86 0.76 0.75 0.65 0.73 0.74 0.93 0.95 1.05 1.13 1.03 0.97 0.98 0.97 0.91 0.90 0.93 1.20 1.18 1.25 1.10 1.01 1.09 1.35 1.17 0.94 0.93 1.00 0.98 1.09 1.16 1.21 1.28 1.42 1.58 1.57 1.51 1.62 1.70 1.60 1.59 1.67 1.70 1.74 1.78 1.70 1.83 1.92 1.92 1.94 1.69 1.57 1.67 1.63 1.68 1.80 1.67 1.75 1.84 1.91 1.81 1.66 1.54
0.01 0.01 0.02 0.02 0.04 0.04 0.04 0.05 0.07 0.08 0.11 0.09 0.08 0.14 0.25 0.16 0.19 0.22 0.34 0.36 0.46 0.73 0.85 0.73 0.97 1.23 0.72 0.94 0.75 0.64 0.71 0.96 1.04 0.90 1.25 1.27 1.34 1.03 1.27 1.18 1.25 1.17 1.30 1.17 1.16 1.10 1.02 1.04 0.99 1.01 1.08 1.13 1.17 1.22 1.23 1.27 1.36 1.52 1.61 1.66 1.57 1.62 1.62 1.60 1.79 1.73 1.68 1.45 1.47 1.52 1.47 1.62 1.58 1.57 1.55 1.52 1.56 1.73 1.53 1.36 1.41 1.50 1.55 1.41 1.53
0.03 0.03 0.04 0.02 0.02 0.02 0.03 0.03 0.08 0.22 0.08 0.06 0.08 0.05 0.04 0.06 0.11 0.09 0.30 0.18 0.19 0.23 0.19 0.37 0.29 0.43 0.53 0.61 0.56 0.69 0.63 0.68 0.70 0.69 0.68 0.71 0.86 0.99 1.00 1.08 1.11 1.00 0.86 0.86 1.16 1.14 1.20 1.17 1.14 1.06 1.03 1.03 1.14 1.22 1.26 1.27 1.27 1.35 1.38 1.46 1.53 1.45 1.51 1.61 1.66 1.69 1.45 1.21 1.13 1.20 1.32 1.35 1.41 1.48 1.45 1.54 1.55 1.62 1.72 1.54 1.56 1.38 1.41 1.73 1.46
0.01 0.01 0.01 0.03 0.03 0.03 0.03 0.02 0.03 0.03 0.05 0.05 0.05 0.07 0.10 0.05 0.03 0.03 0.07 0.08 0.10 0.11 0.13 0.23 0.30 0.17 0.32 0.34 0.36 0.25 0.36 0.36 0.49 0.73 0.70 0.66 0.75 0.76 0.80 0.73 0.98 0.90 0.83 1.16 0.97 0.81 0.75 0.92 1.20 0.89 0.99 0.96 1.04 1.07 1.09 1.16 1.22 1.28 1.42 1.48 1.52 1.55 1.54 1.55 1.52 1.44 1.38 1.33 1.04 0.93 0.85 1.03 1.12 1.19 1.39 1.47 1.43 1.40 1.31 1.66 1.51 1.28 1.32 1.61 1.67
0.01 0.01 0.01 0.01 0.02 0.01 0.04 0.07 0.14 0.05 0.02 0.02 0.03 0.03 0.08 0.21 0.13 0.13 0.10 0.06 0.05 0.06 0.08 0.07 0.09 0.12 0.11 0.15 0.31 0.36 0.66 0.42 0.28 0.38 0.29 0.36 0.47 0.48 0.47 0.61 0.58 0.48 0.63 0.78 0.80 0.70 0.75 0.70 0.71 0.77 0.83 0.80 0.86 0.87 0.93 1.02 1.05 1.08 0.95 1.11 1.20 1.22 1.32 1.42 1.28 1.18 1.21 1.20 1.14 1.03 0.93 0.95 1.06 1.06 1.12 1.17 1.24 1.20 1.06 1.06 1.28 1.28 1.19 1.08 1.20
0.02 0.02 0.05 0.02 0.02 0.01 0.06 0.15 0.18 0.04 0.12 0.07 0.28 0.03 0.08 0.04 0.23 0.39 0.64 0.30 0.13 0.13 0.05 0.04 0.05 0.06 0.12 0.12 0.09 0.09 0.17 0.33 0.47 0.58 0.46 0.32 0.31 0.49 0.53 0.37 0.52 0.75 0.46 0.41 0.70 0.74 0.60 0.65 0.64 0.71 0.63 0.74 0.72 0.80 0.79 0.87 0.86 0.89 0.98 1.01 1.03 0.92 0.86 0.88 0.87 0.88 0.80 0.89 0.86 0.94 0.84 0.78 0.81 0.87 0.95 0.97 1.07 1.17 1.05 0.94 0.95 1.08 1.07 1.00 1.11
0.04 0.08 0.07 0.06 0.03 0.03 0.03 0.06 0.09 0.06 0.04 0.24 0.12 0.07 0.05 0.06 0.14 0.17 0.23 0.54 0.58 0.11 0.26 0.11 0.06 0.04 0.03 0.05 0.09 0.09 0.11 0.18 0.17 0.12 0.20 0.20 0.30 0.40 0.37 0.49 0.32 0.38 0.34 0.31 0.33 0.39 0.54 0.49 0.58 0.50 0.50 0.47 0.51 0.51 0.63 0.75 0.69 0.72 0.82 0.92 1.03 0.91 0.84 0.77 0.78 0.78 0.73 0.71 0.76 0.80 0.88 0.79 0.71 0.72 0.73 0.78 0.72 0.74 0.78 0.83 0.83 0.90 0.92 0.97 1.05
0.06 0.05 0.05 0.11 0.10 0.08 0.06 0.14 0.40 0.09 0.05 0.04 0.06 0.12 0.08 0.07 0.09 0.09 0.12 0.09 0.12 0.23 0.38 0.58 0.77 0.63 0.94 0.67 0.26 0.20 0.13 0.08 0.17 0.16 0.18 0.19 0.22 0.20 0.26 0.41 0.46 0.40 0.44 0.37 0.35 0.30 0.35 0.42 0.67 0.59 0.46 0.46 0.49 0.46 0.50 0.50 0.64 0.68 0.79 0.81 0.75 0.80 0.78 0.81 0.86 0.79 0.69 0.62 0.60 0.61 0.66 0.72 0.81 0.79 0.74 0.82 0.82 0.72 0.70 0.71 0.75 0.71 0.77 0.75 0.81
0.11 0.14 0.11 0.13 0.18 0.16 0.16 0.25 0.21 0.15 0.11 0.15 0.05 0.09 0.13 0.07 0.04 0.09 0.15 0.20 0.17 0.08 0.07 0.04 0.08 0.15 0.22 0.39 0.32 0.38 0.28 0.30 0.54 0.64 0.43 0.13 0.18 0.23 0.19 0.16 0.29 0.34 0.28 0.24 0.27 0.35 0.30 0.35 0.39 0.48 0.57 0.44 0.39 0.45 0.43 0.47 0.42 0.44 0.52 0.67 0.61 0.72 0.67 0.76 0.61 0.63 0.62 0.64 0.58 0.53 0.52 0.56 0.59 0.65 0.71 0.74 0.80 0.90 0.82 0.83 0.79 0.85 0.83 0.80 0.81
0.18 0.21 0.24 0.20 0.24 0.29 0.24 0.20 0.15 0.17 0.17 0.24 0.22 0.07 0.05 0.05 0.05 0.06 0.11 0.08 0.07 0.15 0.23 0.13 0.08 0.06 0.08 0.08 0.15 0.34 0.38 0.33 0.46 0.16 0.28 0.38 0.30 0.41 0.43 0.20 0.32 0.34 0.29 0.32 0.35 0.31 0.43 0.37 0.31 0.37 0.39 0.36 0.34 0.45 0.35 0.65 0.43 0.37 0.38 0.38 0.38 0.44 0.51 0.55 0.54 0.56 0.51 0.54 0.54 0.58 0.57 0.55 0.54 0.58 0.63 0.68 0.62 0.69 0.77 0.74 0.73 0.72 0.71 0.67 0.71
0.20 0.24 0.25 0.33 0.31 0.26 0.34 0.23 0.28 0.13 0.07 0.08 0.08 0.11 0.12 0.08 0.09 0.03 0.07 0.05 0.10 0.18 0.33 0.13 0.12 0.23 0.08 0.10 0.11 0.23 0.38 0.22 0.26 0.28 0.23 0.11 0.42 0.33 0.23 0.44 0.44 0.56 0.33 0.24 0.33 0.31 0.39 0.38 0.38 0.36 0.39 0.34 0.30 0.26 0.27 0.39 0.37 0.39 0.36 0.35 0.31 0.27 0.27 0.31 0.35 0.43 0.48 0.61 0.55 0.51 0.58 0.61 0.60 0.61 0.60 0.59 0.53 0.50 0.51 0.55 0.58 0.61 0.59 0.57 0.61
0.26 0.25 0.27 0.25 0.22 0.24 0.22 0.29 0.24 0.16 0.16 0.19 0.16 0.12 0.10 0.08 0.06 0.09 0.18 0.13 0.10 0.06 0.16 0.19 0.29 0.23 0.17 0.11 0.08 0.34 0.13 0.31 0.35 0.39 0.52 0.73 0.60 0.47 0.19 0.43 0.34 0.47 0.42 0.48 0.44 0.23 0.21 0.17 0.27 0.31 0.24 0.27 0.34 0.38 0.25 0.32 0.29 0.29 0.30 0.33 0.34 0.30 0.27 0.26 0.27 0.31 0.40 0.51 0.60 0.55 0.53 0.51 0.48 0.47 0.45 0.44 0.41 0.36 0.39 0.43 0.46 0.47 0.53 0.53 0.51
0.38 0.51 0.40 0.31 0.25 0.21 0.17 0.16 0.14 0.18 0.31 0.16 0.13 0.09 0.10 0.09 0.08 0.09 0.13 0.04 0.16 0.23 0.28 0.19 0.17 0.10 0.19 0.32 0.16 0.12 0.11 0.21 0.37 0.36 0.22 0.22 0.40 0.75 0.93 0.94 0.94 0.57 0.78 0.55 0.38 0.31 0.28 0.29 0.21 0.25 0.25 0.20 0.25 0.28 0.30 0.26 0.27 0.28 0.27 0.29 0.39 0.35 0.37 0.39 0.41 0.41 0.41 0.36 0.33 0.33 0.37 0.40 0.35 0.33 0.30 0.25 0.23 0.24 0.25 0.26 0.28 0.34 0.39 0.40 0.38
0.45 0.43 0.34 0.26 0.23 0.21 0.19 0.20 0.19 0.18 0.17 0.35 0.48 0.24 0.13 0.09 0.10 0.14 0.18 0.26 0.45 0.41 0.16 0.30 0.42 0.34 0.28 0.26 0.19 0.28 0.40 0.31 0.23 0.21 0.22 0.53 0.18 0.65 0.62 0.22 0.23 0.30 0.34 0.23 0.31 0.44 0.37 0.17 0.11 0.13 0.18 0.25 0.31 0.31 0.40 0.42 0.35 0.34 0.34 0.33 0.37 0.40 0.42 0.44 0.44 0.44 0.39 0.31 0.29 0.31 0.31 0.31 0.30 0.29 0.26 0.21 0.19 0.20 0.19 0.19 0.21 0.22 0.24 0.26 0.30
0.50 0.41 0.36 0.32 0.27 0.23 0.23 0.23 0.22 0.16 0.18 0.17 0.20 0.57 0.43 0.32 0.20 0.25 0.30 0.36 0.25 0.69 0.82 0.86 0.72 0.78 0.66 0.16 0.13 0.23 0.67 0.79 0.75 0.44 0.41 0.45 0.35 0.20 0.50 0.20 0.14 0.15 0.20 0.14 0.15 0.16 0.21 0.18 0.17 0.16 0.16 0.22 0.39 0.48 0.46 0.47 0.50 0.52 0.54 0.49 0.43 0.41 0.41 0.39 0.35 0.37 0.38 0.39 0.32 0.27 0.25 0.23 0.23 0.21 0.21 0.18 0.17 0.15 0.15 0.16 0.18 0.18 0.17 0.16 0.19
0.36 0.35 0.36 0.31 0.25 0.24 0.25 0.26 0.21 0.21 0.21 0.18 0.26 0.28 0.45 0.94 0.57 0.24 0.26 0.50 0.45 0.42 0.44 0.49 0.56 0.37 0.48 0.39 0.48 0.42 0.35 0.70 0.36 0.43 0.37 0.30 0.24 0.15 0.16 0.20 0.19 0.16 0.13 0.09 0.06 0.05 0.07 0.11 0.13 0.19 0.21 0.33 0.53 0.67 0.74 0.67 0.56 0.52 0.50 0.46 0.38 0.33 0.30 0.30 0.31 0.33 0.32 0.29 0.25 0.24 0.27 0.26 0.22 0.18 0.15 0.14 0.14 0.14 0.14 0.15 0.14 0.14 0.13 0.14 0.17
0.23 0.25 0.25 0.24 0.24 0.23 0.27 0.25 0.27 0.22 0.19 0.15 0.22 0.25 0.25 0.15 0.58 0.77 0.68 0.34 0.42 0.65 0.85 0.36 0.40 0.16 0.18 0.18 0.40 0.55 0.36 0.18 0.55 0.42 0.45 0.27 0.18 0.13 0.10 0.12 0.17 0.14 0.12 0.08 0.06 0.03 0.04 0.09 0.13 0.18 0.24 0.41 0.47 0.47 0.45 0.40 0.36 0.34 0.34 0.35 0.33 0.29 0.32 0.36 0.38 0.39 0.37 0.30 0.24 0.22 0.20 0.17 0.15 0.15 0.14 0.12 0.13 0.15 0.14 0.13 0.14 0.11 0.10 0.11 0.13
0.19 0.21 0.23 0.23 0.22 0.25 0.26 0.19 0.18 0.20 0.20 0.23 0.29 0.24 0.19 0.12 0.22 0.51 0.19 0.36 0.19 0.20 0.23 0.37 0.52 0.21 0.09 0.41 0.12 0.20 0.32 0.28 0.13 0.42 0.37 0.59 0.36 0.12 0.09 0.09 0.11 0.13 0.10 0.05 0.04 0.02 0.05 0.04 0.07 0.11 0.11 0.18 0.25 0.30 0.30 0.27 0.25 0.25 0.26 0.29 0.36 0.38 0.39 0.41 0.41 0.34 0.28 0.24 0.20 0.18 0.20 0.16 0.14 0.13 0.13 0.11 0.11 0.14 0.14 0.13 0.14 0.11 0.11 0.11 0.10
0.11 0.30 0.17 0.19 0.19 0.17 0.17 0.18 0.12 0.14 0.18 0.30 0.29 0.25 0.15 0.12 0.16 0.23 0.16 0.13 0.18 0.11 0.09 0.16 0.38 0.20 0.21 0.12 0.12 0.11 0.08 0.09 0.18 0.24 0.31 0.43 0.32 0.27 0.24 0.06 0.07 0.07 0.09 0.12 0.08 0.16 0.15 0.08 0.08 0.09 0.09 0.10 0.11 0.14 0.14 0.13 0.15 0.15 0.18 0.21 0.26 0.32 0.32 0.32 0.29 0.26 0.21 0.19 0.16 0.15 0.17 0.14 0.12 0.12 0.12 0.10 0.09 0.10 0.10 0.10 0.11 0.10 0.09 0.10 0.13
0.12 0.14 0.12 0.10 0.11 0.11 0.10 0.10 0.12 0.14 0.15 0.13 0.11 0.10 0.09 0.09 0.10 0.12 0.25 0.13 0.08 0.06 0.05 0.09 0.31 0.12 0.20 0.10 0.05 0.05 0.05 0.04 0.05 0.08 0.10 0.13 0.24 0.28 0.23 0.09 0.09 0.07 0.09 0.10 0.09 0.10 0.09 0.10 0.09 0.07 0.07 0.08 0.11 0.08 0.04 0.05 0.06 0.08 0.09 0.12 0.17 0.22 0.24 0.21 0.18 0.19 0.16 0.12 0.10 0.11 0.10 0.12 0.14 0.13 0.10 0.07 0.07 0.06 0.07 0.08 0.09 0.10 0.09 0.10 0.15
0.12 0.13 0.28 0.57 0.18 0.18 0.19 0.19 0.20 0.14 0.12 0.10 0.09 0.08 0.07 0.07 0.08 0.09 0.10 0.10 0.08 0.06 0.05 0.07 0.11 0.09 0.07 0.07 0.05 0.04 0.05 0.04 0.04 0.03 0.04 0.07 0.13 0.20 0.24 0.22 0.16 0.18 0.18 0.10 0.10 0.10 0.12 0.16 0.18 0.20 0.20 0.18 0.09 0.03 0.03 0.04 0.04 0.04 0.05 0.08 0.13 0.15 0.12 0.11 0.09 0.08 0.08 0.07 0.07 0.08 0.09 0.09 0.12 0.14 0.11 0.08 0.06 0.08 0.07 0.07 0.06 0.05 0.06 0.07 0.12
0.12 0.15 0.43 0.49 0.25 0.18 0.17 0.16 0.15 0.15 0.12 0.10 0.10 0.10 0.09 0.09 0.09 0.09 0.09 0.08 0.05 0.04 0.06 0.07 0.11 0.12 0.08 0.06 0.04 0.05 0.05 0.04 0.04 0.05 0.05 0.06 0.07 0.14 0.23 0.28 0.26 0.22 0.17 0.17 0.17 0.18 0.19 0.19 0.17 0.15 0.11 0.05 0.03 0.02 0.01 0.02 0.02 0.03 0.06 0.08 0.09 0.07 0.06 0.07 0.06 0.06 0.06 0.05 0.06 0.06 0.08 0.08 0.08 0.09 0.10 0.08 0.05 0.06 0.08 0.07 0.07 0.09 0.09 0.08 0.10
0.03 0.08 0.08 0.09 0.12 0.14 0.15 0.15 0.15 0.15 0.13 0.11 0.09 0.08 0.07 0.06 0.07 0.08 0.07 0.07 0.06 0.04 0.04 0.06 0.08 0.09 0.07 0.05 0.04 0.05 0.05 0.04 0.04 0.04 0.04 0.07 0.09 0.17 0.26 0.31 0.29 0.23 0.21 0.20 0.20 0.19 0.17 0.13 0.09 0.05 0.02 0.01 0.01 0.01 0.01 0.01 0.02 0.02 0.03 0.04 0.05 0.05 0.04 0.03 0.03 0.03 0.03 0.04 0.05 0.06 0.08 0.09 0.12 0.11 0.09 0.08 0.07 0.05 0.07 0.11 0.13 0.14 0.14 0.13 0.13
0.01 0.02 0.02 0.02 0.03 0.04 0.05 0.06 0.08 0.09 0.09 0.08 0.07 0.06 0.06 0.06 0.07 0.09 0.09 0.06 0.06 0.05 0.04 0.05 0.06 0.09 0.09 0.08 0.05 0.06 0.07 0.07 0.07 0.08 0.10 0.12 0.12 0.16 0.22 0.28 0.25 0.16 0.13 0.11 0.09 0.07 0.07 0.07 0.07 0.04 0.01 0.00 0.01 0.01 0.01 0.01 0.01 0.01 0.01 0.02 0.03 0.04 0.03 0.02 0.02 0.02 0.02 0.03 0.04 0.05 0.05 0.05 0.08 0.09 0.10 0.10 0.10 0.09 0.09 0.09 0.09 0.10 0.13 0.15 0.21